Location: Newark
(60.0000°N, 100.0000°E)
Time: 15:50:25
(UTC+00:00)

N. Korean satellite - Pass Details

Date: 26 November 2019
Orbit: 456 x 506 km, 97.2° (Epoch: 09 December)

Event Time Altitude Azimuth Distance (km) Brightness Sun altitude
Rises 10:39:39 0° 185° (S) 2,594 10.5 -14.7°
Reaches altitude 10° 10:41:50 10° 193° (SSW) 1,718 9.7 -14.9°
Maximum altitude 10:45:19 38° 263° (W) 792 8.3 -15.4°
Drops below altitude 10° 10:48:50 10° 333° (NNW) 1,735 9.5 -15.8°
Sets 10:51:03 0° 341° (NNW) 2,624 10.3 -16.0°
